Hourly Data Report for April 12, 2017

CLYDE RIVER A
NUNAVUT

70°29'09.000" N
68°31'01.000" W
26.50 m
2400804
71090
YCY

Download Data

Hourly Data (April 2017)
Hourly Data Report for April 12, 2017
TIME
LST
Temp Definition
°C
Dew Point Definition
°C
Rel Hum Definition
%
Precip. Amount Definition
mm

Wind Dir Definition
10's deg

Wind Spd Definition
km/h
Visibility Definition
km
Stn Press Definition
kPa
Hmdx Definition


Wind Chill Definition


Weather Definition


00:00 -12.5 -14.2 87 0.0 32 28 16.1 100.15   -22 Snow
01:00 -12.6 -14.4 87 0.0 32 26 9.7 100.11   -22 Snow
02:00 -12.7 -14.3 88 0.0 32 37 4.8 100.07   -24 Snow
03:00 -12.8 -14.4 88 0.0 32 39 2.4 100.06   -24 Snow
04:00 -12.7 -14.2 89 0.0 32 39 0.8 100.04   -24 Moderate Snow,Blowing Snow
05:00 -12.6 -14.2 88 0.0 32 41 1.2 100.04   -24 Snow,Blowing Snow
06:00 -12.6 -14.2 88 0.0 32 45 1.0 100.03   -25 Snow,Blowing Snow
07:00 -12.3 -14.1 87 0.0 32 46 1.2 100.03   -25 Snow,Blowing Snow
08:00 -12.3 -14.0 87 0.0 32 43 1.2 100.05   -24 Snow,Blowing Snow
09:00 -12.0 -13.8 87 0.0 32 50 1.0 100.06   -24 Snow,Blowing Snow
10:00 -11.8 -13.7 86 0.0 33 39 1.6 100.13   -23 Snow
11:00 -11.4 -13.4 85 0.0 32 39 2.4 100.13   -23 Snow
12:00 -11.4 -13.4 85 0.0 32 41 2.8 100.16   -23 Snow,Blowing Snow
13:00 -11.2 -13.4 84 0.0 32 39 4.0 100.20   -22 Snow
14:00 -11.4 -13.3 86 0.0 33 37 2.0 100.26   -22 Snow
15:00 -11.6 -13.5 86 0.0 32 32 2.8 100.33   -22 Snow
16:00 -11.6 -13.6 85 0.0 33 24 11.3 100.36   -21 Snow
17:00 -11.7 -13.6 86 0.0 33 22 12.9 100.40   -20 Snow
18:00 -12.0 -13.7 87 0.0 34 17 14.5 100.45   -20 Snow
19:00 -12.4 -14.1 87 0.0 33 15 16.1 100.50   -20 Snow
20:00 -12.8 -14.5 87 0.0 32 15 16.1 100.55   -20 Snow
21:00 -13.0 -14.9 86 0.0 31 15 16.1 100.59   -20 Snow
22:00 -13.0 -14.6 88 0.0 31 17 2.4 100.59   -21 Snow
23:00 -13.1 -14.7 88 0.0 33 17 16.1 100.60   -21 Snow

Notes on Data Quality.

Legend

  • E = Estimated
  • M = Missing
  • NA = Not Available*
  • [empty] = Indicates an unobserved value
Date modified: